TimeCDT,TemperatureF,Dew PointF,Humidity,Sea Level PressureIn,VisibilityMPH,Wind Direction,Wind SpeedMPH,Gust SpeedMPH,PrecipitationIn,Events,Conditions,WindDirDegrees,DateUTC
12:08 AM,44.1,19.0,37,-9999,-9999.0,ESE,8.1,-,N/A,,Unknown,120,2013-05-06 05:08:00
12:28 AM,44.1,19.0,37,-9999,-9999.0,ESE,6.9,-,N/A,,Unknown,120,2013-05-06 05:28:00
12:48 AM,45.0,18.1,34,-9999,-9999.0,ESE,8.1,-,N/A,,Unknown,120,2013-05-06 05:48:00
1:08 AM,44.1,18.1,35,-9999,-9999.0,ESE,8.1,-,N/A,,Unknown,120,2013-05-06 06:08:00
1:28 AM,44.1,19.0,37,-9999,-9999.0,ESE,6.9,-,N/A,,Unknown,120,2013-05-06 06:28:00
1:48 AM,42.1,19.0,40,-9999,-9999.0,SE,5.8,-,N/A,,Unknown,130,2013-05-06 06:48:00
2:08 AM,42.1,17.1,37,-9999,-9999.0,ESE,8.1,-,N/A,,Unknown,110,2013-05-06 07:08:00
2:28 AM,41.0,18.1,40,-9999,-9999.0,ESE,8.1,-,N/A,,Unknown,120,2013-05-06 07:28:00
2:48 AM,42.1,18.1,38,-9999,-9999.0,ESE,6.9,-,N/A,,Unknown,120,2013-05-06 07:48:00
3:08 AM,41.0,19.0,41,-9999,-9999.0,SE,6.9,-,N/A,,Unknown,130,2013-05-06 08:08:00
3:28 AM,41.0,19.0,41,-9999,-9999.0,SE,8.1,-,N/A,,Unknown,130,2013-05-06 08:28:00
3:48 AM,42.1,18.1,38,-9999,-9999.0,SE,8.1,-,N/A,,Unknown,130,2013-05-06 08:48:00
4:08 AM,43.0,19.0,38,-9999,-9999.0,SSE,6.9,-,N/A,,Unknown,150,2013-05-06 09:08:00
4:28 AM,39.9,19.0,43,-9999,-9999.0,SE,4.6,-,N/A,,Unknown,140,2013-05-06 09:28:00
4:48 AM,41.0,19.0,41,-9999,-9999.0,SE,3.5,-,N/A,,Unknown,130,2013-05-06 09:48:00
5:08 AM,42.1,19.0,40,-9999,-9999.0,SSE,4.6,-,N/A,,Unknown,150,2013-05-06 10:08:00
5:28 AM,42.1,19.0,40,-9999,-9999.0,SSE,5.8,-,N/A,,Unknown,150,2013-05-06 10:28:00
5:48 AM,42.1,20.1,42,-9999,-9999.0,SSE,8.1,-,N/A,,Unknown,150,2013-05-06 10:48:00
6:08 AM,39.0,20.1,47,-9999,-9999.0,SSE,6.9,-,N/A,,Unknown,150,2013-05-06 11:08:00
6:28 AM,39.0,21.0,49,-9999,-9999.0,SE,6.9,-,N/A,,Unknown,140,2013-05-06 11:28:00
6:48 AM,39.9,22.1,49,-9999,-9999.0,SSE,6.9,-,N/A,,Unknown,150,2013-05-06 11:48:00
7:08 AM,41.0,23.0,49,-9999,-9999.0,SSE,8.1,-,N/A,,Unknown,150,2013-05-06 12:08:00
7:28 AM,41.0,24.1,51,-9999,-9999.0,SE,5.8,-,N/A,,Unknown,140,2013-05-06 12:28:00
7:48 AM,43.0,27.1,54,-9999,-9999.0,SE,6.9,-,N/A,,Unknown,130,2013-05-06 12:48:00
8:08 AM,46.0,30.0,54,-9999,-9999.0,SSE,6.9,-,N/A,,Unknown,150,2013-05-06 13:08:00
8:28 AM,48.0,32.2,54,-9999,-9999.0,SSE,9.2,-,N/A,,Unknown,150,2013-05-06 13:28:00
8:48 AM,50.0,33.1,52,-9999,-9999.0,SSE,10.4,-,N/A,,Unknown,160,2013-05-06 13:48:00
9:08 AM,52.0,33.1,49,-9999,-9999.0,SSE,11.5,-,N/A,,Unknown,150,2013-05-06 14:08:00
9:28 AM,54.0,33.1,45,-9999,-9999.0,SSE,12.7,-,N/A,,Unknown,160,2013-05-06 14:28:00
9:48 AM,55.9,32.2,41,-9999,-9999.0,South,11.5,-,N/A,,Unknown,180,2013-05-06 14:48:00
10:08 AM,57.9,32.2,38,-9999,-9999.0,South,11.5,-,N/A,,Unknown,170,2013-05-06 15:08:00
10:28 AM,60.1,31.1,33,-9999,-9999.0,South,16.1,-,N/A,,Unknown,180,2013-05-06 15:28:00
10:48 AM,63.0,32.2,32,-9999,-9999.0,SSE,12.7,-,N/A,,Unknown,160,2013-05-06 15:48:00
11:08 AM,63.0,32.2,32,-9999,-9999.0,South,12.7,-,N/A,,Unknown,180,2013-05-06 16:08:00
11:28 AM,64.0,32.2,30,-9999,-9999.0,South,12.7,-,N/A,,Unknown,180,2013-05-06 16:28:00
11:48 AM,66.9,31.1,26,-9999,-9999.0,South,16.1,-,N/A,,Unknown,190,2013-05-06 16:48:00
12:08 PM,70.0,32.2,25,-9999,-9999.0,South,16.1,-,N/A,,Unknown,170,2013-05-06 17:08:00
12:28 PM,72.0,30.0,21,-9999,-9999.0,South,16.1,-,N/A,,Unknown,180,2013-05-06 17:28:00
12:48 PM,70.0,30.0,23,-9999,-9999.0,SSW,13.8,-,N/A,,Unknown,200,2013-05-06 17:48:00
1:08 PM,70.0,30.0,23,-9999,-9999.0,South,18.4,-,N/A,,Unknown,170,2013-05-06 18:08:00
1:28 PM,70.0,30.0,23,-9999,-9999.0,South,16.1,-,N/A,,Unknown,180,2013-05-06 18:28:00
1:48 PM,71.1,32.2,24,-9999,-9999.0,SSW,13.8,-,N/A,,Unknown,200,2013-05-06 18:48:00
2:08 PM,71.1,33.1,25,-9999,-9999.0,South,13.8,-,N/A,,Unknown,180,2013-05-06 19:08:00
2:28 PM,73.0,32.2,22,-9999,-9999.0,SSW,13.8,-,N/A,,Unknown,200,2013-05-06 19:28:00
2:48 PM,72.0,31.1,22,-9999,-9999.0,SSW,13.8,-,N/A,,Unknown,200,2013-05-06 19:48:00
3:08 PM,72.0,31.1,22,-9999,-9999.0,SSW,19.6,-,N/A,,Unknown,200,2013-05-06 20:08:00
3:28 PM,71.1,33.1,25,-9999,-9999.0,SW,13.8,-,N/A,,Unknown,220,2013-05-06 20:28:00
3:48 PM,72.0,33.1,24,-9999,-9999.0,South,13.8,-,N/A,,Unknown,190,2013-05-06 20:48:00
4:08 PM,70.0,33.1,26,-9999,-9999.0,WSW,15.0,-,N/A,,Unknown,250,2013-05-06 21:08:00
4:28 PM,68.0,34.2,29,-9999,-9999.0,WSW,15.0,-,N/A,,Unknown,250,2013-05-06 21:28:00
4:48 PM,66.9,35.1,31,-9999,-9999.0,WSW,16.1,-,N/A,,Unknown,240,2013-05-06 21:48:00
5:08 PM,66.0,36.1,33,-9999,-9999.0,WSW,13.8,-,N/A,,Unknown,240,2013-05-06 22:08:00
5:28 PM,64.0,37.0,37,-9999,-9999.0,WSW,16.1,-,N/A,,Unknown,240,2013-05-06 22:28:00
5:48 PM,62.1,37.0,39,-9999,-9999.0,SW,10.4,-,N/A,,Unknown,220,2013-05-06 22:48:00
6:08 PM,62.1,39.0,43,-9999,-9999.0,SW,16.1,-,N/A,,Unknown,230,2013-05-06 23:08:00
6:28 PM,59.0,41.2,52,-9999,-9999.0,SW,17.3,-,N/A,,Unknown,230,2013-05-06 23:28:00
6:48 PM,57.9,42.1,56,-9999,-9999.0,SSW,10.4,-,N/A,,Unknown,210,2013-05-06 23:48:00
7:08 PM,59.0,41.2,52,-9999,-9999.0,South,10.4,-,N/A,,Unknown,190,2013-05-07 00:08:00
7:28 PM,61.0,40.1,46,-9999,-9999.0,South,9.2,-,N/A,,Unknown,180,2013-05-07 00:28:00
7:48 PM,61.0,40.1,46,-9999,-9999.0,SSW,8.1,-,N/A,,Unknown,200,2013-05-07 00:48:00
8:08 PM,60.1,40.1,48,-9999,-9999.0,SSW,9.2,-,N/A,,Unknown,200,2013-05-07 01:08:00
8:28 PM,59.0,41.2,52,-9999,-9999.0,South,8.1,-,N/A,,Unknown,190,2013-05-07 01:28:00
8:48 PM,57.9,42.1,56,-9999,-9999.0,South,9.2,-,N/A,,Unknown,190,2013-05-07 01:48:00
9:08 PM,57.9,42.1,56,-9999,-9999.0,South,6.9,-,N/A,,Unknown,190,2013-05-07 02:08:00
9:28 PM,57.0,43.2,60,-9999,-9999.0,South,8.1,-,N/A,,Unknown,180,2013-05-07 02:28:00
9:48 PM,55.0,43.2,64,-9999,-9999.0,SSW,5.8,-,N/A,,Unknown,200,2013-05-07 02:48:00
10:08 PM,55.0,42.1,62,-9999,-9999.0,South,8.1,-,N/A,,Unknown,180,2013-05-07 03:08:00
10:28 PM,54.0,41.2,62,-9999,-9999.0,South,8.1,-,N/A,,Unknown,190,2013-05-07 03:28:00
10:48 PM,54.0,39.0,57,-9999,-9999.0,South,11.5,-,N/A,,Unknown,190,2013-05-07 03:48:00
11:08 PM,53.1,39.0,59,-9999,-9999.0,South,8.1,-,N/A,,Unknown,190,2013-05-07 04:08:00
11:28 PM,53.1,39.0,59,-9999,-9999.0,SSW,8.1,-,N/A,,Unknown,200,2013-05-07 04:28:00
11:48 PM,53.1,39.0,59,-9999,-9999.0,SSW,6.9,-,N/A,,Unknown,200,2013-05-07 04:48:00